Other Public Products
Issued by NWS Grand Forks, ND

Home | Current Version | Previous Version | Graphics & Text | Print | Product List | Glossary On
Versions: 1 2 3 4 5 6 7 8 9 10 11 12 13 14 15 16 17 18 19 20 21 22 23 24 25 26 27 28 29 30 31 32 33 34 35 36 37 38 39 40 41 42 43 44 45 46 47 48 49 50
000
FPUS83 KFGF 291931
OPUFGF
PRAIRIE TO PINES WEATHER ROUNDUP
NATIONAL WEATHER SERVICE EASTERN NORTH DAKOTA/GRAND FORKS ND
200 PM CDT WED JUL 29 2015

 **SATELLITE DATA USED TO AUGMENT SKY COVER AT AUTOMATED STATIONS**
 *****  WEATHER ACROSS EASTERN NORTH DAKOTA  *****

CITY           SKY/WX    TMP DP  RH WIND       PRES   REMARKS
GRAND FORKS    PTSUNNY   79  54  41 W24G33    29.80R
GRAND FORKS AF SUNNY     78  55  44 NW26G38   29.82R
GRAND CITY NWS   N/A     77 N/A N/A NW26        N/A
BUXTON         NOT AVBL
DEVILS LAKE    MOSUNNY   77  52  41 W30G38    29.87R
FARGO          PTSUNNY   80  54  40 W26G35    29.88R
WAHPETON ARPT  PTCLDY    81  45  28 W25G37    29.93R
$$

 *****  WEATHER ACROSS CENTRAL AND WESTERN NORTH DAKOTA  *****

CITY           SKY/WX    TMP DP  RH WIND       PRES   REMARKS
JAMESTOWN      MOSUNNY   77  50  38 NW29G37   29.95S
BISMARCK       PTSUNNY   80  48  32 W23G32    30.05R
MINOT          MOSUNNY   78  51  38 W24G30    29.96R
MINOT AFB      MOSUNNY   79  54  41 W24G32    29.94R
GARRISON         N/A     75  54  47 W21G29    30.01S
WILLISTON      SUNNY     80  46  30 W21       30.05S
DICKINSON      MOSUNNY   78  46  32 W22G29    30.10F
HETTINGER      PTSUNNY   79  41  25 W24G33    30.16F
$$

 *****  OTHER OBSERVATIONS NORTHEAST NORTH DAKOTA  *****

CITY           SKY/WX    TMP DP  RH WIND       PRES   REMARKS
WALHALLA       FAIR      77  50  38 MISG      29.77R
LANGDON        FAIR      72  50  46 W29G36    29.82R
CAVALIER       FAIR      77  50  38 NW25G35   29.76R
GRAFTON        FAIR      77  54  44 W21G33    29.79R
CANDO          FAIR      75  55  50 W25G36    29.87R
FORT TOTTEN      N/A     76  53  43 NW12      29.95S
ROLLA            N/A     72  55  56 NW24G35   29.88R
RUGBY          NOT AVBL
 ***** THE ABOVE OBSERVATIONS ARE NON NWS ARE NOT QUALITY
        CONTROLLED AND MAY MIS-REPORT RAIN FOR SNOW...
$$

 *****  OTHER OBSERVATIONS SOUTHEAST NORTH DAKOTA *****

CITY           SKY/WX    TMP DP  RH WIND       PRES   REMARKS
COOPERSTOWN    NOT AVBL
VALLEY CITY    FAIR      79  54  41 W28G37    29.93S
OAKES            N/A     81  54  39 W23G35    29.98S
GWINNER        FAIR      81  55  41 W26G36    29.97S
SHEYENNE NWR     N/A     80  51  35 W23       29.95
BUFFALO        NOT AVBL
WYNDMERE       NOT AVBL
 ***** THE ABOVE OBSERVATIONS ARE NON NWS ARE NOT QUALITY
       CONTROLLED AND MAY MIS-REPORT RAIN FOR SNOW...
$$

  *****  WEATHER ACROSS NORTHERN MINNESOTA  *****

CITY           SKY/WX    TMP DP  RH WIND       PRES   REMARKS
FLAG ISLAND    CLOUDY    70  57  64 W24G33    29.62R
WARROAD        PTSUNNY   70  61  73 W17G28    29.68R
ROSEAU         MOSUNNY   73  59  60 W20G28    29.69R
HALLOCK        SUNNY     77  48  36 NW28G39   29.74R
THF RVR FALLS  PTSUNNY   75  54  46 W22G35    29.78R
HALSTAD        NOT AVBL
FOSSTON        MOSUNNY   75  54  46 W23G32    29.82S
BAUDETTE       CLOUDY    67  56  67 W17G25    29.67R
WASKISH        CLOUDY    72  61  68 W21G32    29.72R
CROOKSTON      MOSUNNY   77  55  47 W28G35    29.81R
$$
  *****  WEATHER ACROSS CENTRAL AND WEST MINNESOTA  *****

CITY           SKY/WX    TMP DP  RH WIND       PRES   REMARKS
BEMIDJI        MOSUNNY   76  53  45 W26G40    29.79R
PARK RAPIDS    MOSUNNY   78  53  41 W25G41    29.85R
WADENA         MOSUNNY   75  54  46 W25G36    29.88S
DETROIT LAKES  MOSUNNY   77  54  44 W22G38    29.90R
MOORHEAD       MOSUNNY   79  55  44 W23G39    29.89R
FERGUS FALLS   MOSUNNY   79  54  41 W32G38    29.91R
ELBOW LAKE     FAIR      77  56  47 W22G38    29.94R
MORRIS MN      SUNNY     79  57  47 W25G33    29.96R
STAPLES        MOSUNNY   77  52  41 W23G33    29.88R
WHEATON        SUNNY     77  54  44 W25G35    29.96S
$$
  *****  WEATHER ELSEWHERE ACROSS MINNESOTA  *****

CITY           SKY/WX    TMP DP  RH WIND       PRES   REMARKS
DULUTH         PTSUNNY   72  55  55 W24G40    29.79R
INTRNTL FALLS  LGT RAIN  63  59  87 W16G24    29.66R
ELY            CLOUDY    64  55  72 W23G30    29.71R
CLOQUET        CLOUDY    73  52  46 W17G25    29.80R
BRAINERD       MOSUNNY   78  53  41 W18G35    29.85R
HIBBING        CLOUDY    69  55  60 W14G25    29.76R
ALEXANDRIA     MOSUNNY   78  55  44 W20G35    29.94S
SAINT CLOUD    MOSUNNY   80  55  42 W18G33    29.92R
MINNEAPOLIS    MOSUNNY   80  53  39 W22G37    29.95R
$$

  *****  WEATHER ACROSS SOUTH DAKOTA  *****

CITY           SKY/WX    TMP DP  RH WIND       PRES   REMARKS
SIOUX FALLS    MOSUNNY   80  53  39 W13G25    30.11F
BROOKINGS      SUNNY     79  54  41 W23G32    30.09F
WATERTOWN      SUNNY     79  52  38 W18G31    30.05S
HURON          SUNNY     84  49  29 NW24G33   30.07F
SISSETON         N/A     79  52  38 NW28G40   29.95S
ABERDEEN       SUNNY     83  49  30 W23G37    30.03F
MITCHELL       SUNNY     85  49  28 W18G28    30.11F
PIERRE         SUNNY     86  41  20 NW24G31   30.11F
MOBRIDGE       MOSUNNY   83  49  30 NW16G28   30.07S
RAPID CITY     SUNNY     79  43  27 SE5       30.23F
$$

  *****  SOME WEATHER IN NEARBY STATES *****

CITY           SKY/WX    TMP DP  RH WIND       PRES   REMARKS
GLASGOW MT     SUNNY     78  45  30 NW14      30.11F
GREAT FALLS MT SUNNY     77  37  23 W15G26    30.19F
CHEYENNE WY    SUNNY     77  49  37 S10G17    30.36F
SCOTTSBLUFF NE SUNNY     79  47  32 E9        30.27F
OMAHA NE       MOSUNNY   85  52  32 W10       30.16S
DES MOINES IA  PTSUNNY   85  53  33 NW12      30.11F
DAVENPORT IA   MOSUNNY   81  58  45 W12       30.08R
CHICAGO IL     PTSUNNY   87  50  27 NW14      29.98F
EAU CLAIRE WI  SUNNY     81  52  36 W26G40    29.91R
LA CROSSE WI   SUNNY     84  53  34 W20G32    29.96S
$$

  *****  SOME NATIONAL WEATHER *****

CITY           SKY/WX    TMP DP  RH WIND       PRES   REMARKS
LA GUARDIA NY  MOSUNNY   93  60  33 S13       29.94F HX  93
RALEIGH NC     MOSUNNY   88  70  55 CALM      30.01F HX  93
ATLANTA GA     MOSUNNY   92  73  53 VRB7      29.97F HX 100
NEW ORLEANS LA PTSUNNY   95  72  47 N7        29.99F HX 103
OKLAHOMA CITY  MOSUNNY   93  72  50 E10       30.06F HX 101
ALBUQUERQUE NM CLOUDY    79  55  43 VRB7      30.31F
SALT LAKE CITY MOSUNNY   79  29  16 NW7       30.29F
LOS ANGELES CA MOSUNNY   72  63  73 W10       29.97R
BOISE ID       SUNNY     82  31  15 VRB3      30.24F
SEATTLE WA     MOSUNNY   80  51  36 N8        30.18F
$$

*** WEATHER ACROSS MANITOBA...SASKATCHEWAN AND ONTARIO ***
                ***ONTARIO***

CITY           SKY/WX    TMP DP  RH WIND       PRES   REMARKS
GERALDTON      CLOUDY    68  54  60 SW18G28   29.54R
THUNDER BAY    PTSUNNY   73  57  56 W21G35    29.60R
SIOUX LOOKOUT  LGT RAIN  64  63  94 W9G20     29.46R FOG
TORONTO        PTSUNNY   88  63  42 S10G18    29.91F
BIG TROUT LK   PTSUNNY   66  61  82 SW7       29.26F
PICKLE LAKE    SHOWER    66  59  77 W21G29    29.33S FOG
DRYDEN         LGT RAIN  64  61  88 W24G37    29.49R
KENORA         LGT RAIN  61  61 100 W15G25    29.58R FOG
$$
                *** MANITOBA***

CITY           SKY/WX    TMP DP  RH WIND       PRES   REMARKS
BRANDON        MOSUNNY   77  54  44 NW35G48   29.79R
DAUPHIN        MOSUNNY   73  52  46 NW22G30   29.73R
ISLAND LAKE    LGT RAIN  66  63  88 NW12      29.30R
PILOT MOUND      N/A     73  50  43 NW22G38     N/A
THE PAS        MOSUNNY   72  57  60 NW16G23   29.69R
THOMPSON       LGT RAIN  57  55  94 N18       29.58R FOG
WINNIPEG       MOSUNNY   75  57  53 W23G40    29.66R
LYNN LAKE        N/A    N/A N/A N/A MISG        N/A
CHURCHILL      LGT RAIN  50  50 100 N16       29.59R VSB 1/4
GILLAM         DRIZZLE   55  54  94 N31G40    29.42R
$$
                ***SASKATCHEWAN***

CITY           SKY/WX    TMP DP  RH WIND       PRES   REMARKS
ESTEVAN        MOSUNNY   77  55  47 W24G32    29.98R
KINDERSLEY     MOSUNNY   75  43  31 NW12      30.03F
LLOYDMINSTER   PTSUNNY   70  48  46 W16G24    30.00S
PRINCE ALBERT  MOSUNNY   75  57  53 NW18      29.85S
REGINA         MOSUNNY   75  57  53 W21G33    29.98R


USA.gov is the U.S. government's official web portal to all federal, state and local government web resources and services.